SWA3800 KDCA-KCMH

Flight info

Callsign SWA3800
Flight time N/A
Altitude 32000
Route WYNGS5 RAMAY Q72 HACKS SCRLT2
Aircraft B738/M-SDE2E3FGHIRWXY/LB1

Departure

Time 2026-04-26 16:54
Airport Ronald Reagan Washington National Airport (KDCA)

Arrival

Time N/A
Airport John Glenn Columbus International Airport (KCMH)
Time Latitude Longitude Altitude Speed Heading
2026-04-26 16:17 38.84723 -77.04215 22 ft 0 kts 232°
2026-04-26 16:43 38.84726 -77.04209 22 ft 2 kts 232°
2026-04-26 16:44 38.84743 -77.04190 24 ft 4 kts 189°
2026-04-26 16:44 38.84768 -77.04193 23 ft 4 kts 152°
2026-04-26 16:44 38.84777 -77.04200 24 ft 2 kts 148°
2026-04-26 16:48 38.84758 -77.04185 23 ft 5 kts 148°
2026-04-26 16:49 38.84726 -77.04161 23 ft 6 kts 150°
2026-04-26 16:49 38.84685 -77.04134 24 ft 7 kts 158°
2026-04-26 16:49 38.84628 -77.04099 22 ft 10 kts 140°
2026-04-26 16:49 38.84634 -77.04038 21 ft 14 kts 39°
2026-04-26 16:50 38.84729 -77.03972 20 ft 16 kts 45°
2026-04-26 16:50 38.84736 -77.03899 20 ft 0 kts 112°
2026-04-26 16:50 38.84726 -77.03885 22 ft 5 kts 141°
2026-04-26 16:50 38.84626 -77.03863 20 ft 18 kts 176°
2026-04-26 16:51 38.84498 -77.03851 20 ft 18 kts 175°
2026-04-26 16:51 38.84376 -77.03839 23 ft 18 kts 176°
2026-04-26 16:51 38.84263 -77.03828 21 ft 14 kts 165°
2026-04-26 16:51 38.84242 -77.03814 22 ft 4 kts 142°
2026-04-26 16:52 38.84227 -77.03789 20 ft 0 kts 123°
2026-04-26 16:52 38.84217 -77.03771 20 ft 11 kts 123°
2026-04-26 16:53 38.84236 -77.03688 19 ft 12 kts 13°
2026-04-26 16:53 38.84346 -77.03696 18 ft 39 kts 355°
2026-04-26 16:53 38.84924 -77.03754 19 ft 125 kts 355°
2026-04-26 16:53 38.86037 -77.03859 141 ft 187 kts 356°
2026-04-26 16:54 38.87318 -77.04064 617 ft 179 kts 351°
2026-04-26 16:54 38.88317 -77.04931 787 ft 173 kts 309°
2026-04-26 16:54 38.89075 -77.06112 862 ft 172 kts 317°
2026-04-26 16:54 38.89981 -77.07161 1387 ft 178 kts 327°
2026-04-26 16:55 38.90783 -77.08428 1964 ft 194 kts 296°
2026-04-26 16:55 38.91396 -77.10113 2224 ft 223 kts 297°
2026-04-26 16:55 38.92452 -77.11645 2433 ft 240 kts 331°
2026-04-26 16:55 38.93968 -77.12714 2655 ft 259 kts 332°
2026-04-26 16:56 38.96008 -77.16402 3490 ft 269 kts 269°
2026-04-26 16:56 38.95980 -77.18753 4572 ft 260 kts 268°
2026-04-26 16:56 38.95963 -77.21052 5593 ft 258 kts 269°
2026-04-26 16:57 38.95955 -77.23382 6390 ft 264 kts 269°
2026-04-26 16:57 38.95953 -77.25736 7282 ft 264 kts 269°
2026-04-26 16:57 38.95959 -77.30505 8937 ft 268 kts 268°
2026-04-26 16:58 38.95964 -77.32102 9501 ft 270 kts 268°
2026-04-26 16:58 38.95969 -77.33705 10066 ft 271 kts 268°
2026-04-26 16:58 38.95992 -77.40744 10841 ft 327 kts 268°
2026-04-26 16:59 38.96003 -77.43747 11272 ft 341 kts 269°
2026-04-26 16:59 38.96025 -77.48864 12483 ft 346 kts 269°
2026-04-26 17:00 38.96051 -77.55092 13968 ft 352 kts 269°
2026-04-26 17:00 38.96073 -77.61443 15224 ft 360 kts 269°